Date,TemperatureHighF,TemperatureAvgF,TemperatureLowF,DewpointHighF,DewpointAvgF,DewpointLowF,HumidityHigh,HumidityAvg,HumidityLow,PressureMaxIn,PressureMinIn,WindSpeedMaxMPH,WindSpeedAvgMPH,GustSpeedMaxMPH,PrecipitationSumIn
2013-6-1,80,72,68,71,66,61,98,81,68,30.05,29.92,15,2,15,0.61
2013-6-2,76,70,67,71,67,63,99,90,65,29.95,29.85,10,1,10,0.48
2013-6-3,78,69,63,65,61,56,96,77,51,29.98,29.88,12,1,12,0.00
2013-6-4,76,69,61,64,59,56,86,70,51,30.02,29.96,7,1,10,0.00
2013-6-5,75,68,64,69,64,58,100,87,68,30.01,29.89,14,1,14,0.63
2013-6-6,76,68,64,71,66,64,100,95,74,29.91,29.75,11,1,11,0.03
2013-6-7,72,66,64,65,64,62,96,91,71,29.85,29.74,2,0,4,0.06
2013-6-8,78,68,61,67,62,58,99,82,54,30.05,29.83,12,1,12,0.04
2013-6-9,78,69,66,70,66,60,100,90,74,30.07,29.93,12,1,12,0.77
2013-6-10,79,70,65,68,65,59,100,86,53,29.96,29.88,14,1,14,0.89
2013-6-11,84,75,67,72,68,64,96,80,54,30.01,29.93,7,0,7,0.38
2013-6-12,87,78,72,74,70,66,93,77,51,30.04,29.92,11,0,11,0.00
2013-6-13,84,76,70,73,69,63,85,77,62,29.92,29.72,17,2,17,0.00
2013-6-14,80,71,62,64,58,54,85,66,46,30.01,29.85,15,1,15,0.00
2013-6-15,80,72,64,64,60,55,77,66,52,30.10,30.00,13,1,13,0.01
2013-6-16,83,73,66,69,64,59,92,74,58,30.11,29.97,12,1,12,0.00
2013-6-17,77,70,67,72,67,64,98,91,74,30.03,29.90,12,0,12,0.22
2013-6-18,75,69,66,71,66,62,99,91,75,29.94,29.84,12,0,12,0.52
2013-6-19,79,71,64,67,63,60,92,76,54,30.05,29.92,9,1,10,0.00
2013-6-20,81,73,67,69,65,60,93,77,56,30.17,30.05,12,1,12,0.00
2013-6-21,78,70,66,66,64,63,92,82,59,30.23,30.14,11,1,11,0.00
2013-6-22,80,76,72,66,62,60,72,62,52,30.20,30.08,11,1,11,0.00
2013-6-23,81,73,67,70,65,60,94,77,59,30.18,30.07,12,1,12,0.02
2013-6-24,82,74,67,71,68,65,97,82,58,30.20,30.06,12,0,12,0.00
2013-6-25,82,72,68,75,70,65,99,91,70,30.14,30.00,11,0,11,0.98
2013-6-26,85,77,70,72,70,68,97,81,59,30.04,29.85,11,0,11,0.00
2013-6-27,84,76,72,75,70,65,96,84,64,29.90,29.78,12,0,12,0.25
2013-6-28,86,76,69,72,68,65,96,79,54,29.82,29.65,12,1,12,0.03
2013-6-29,82,74,68,68,62,54,95,68,43,29.69,29.64,13,0,13,0.00
2013-6-30,83,73,64,66,60,55,94,66,40,29.82,29.65,11,1,11,0.12